Showing default

HAWK-13A, 67392

Orbit data source: Space-Track

HAWK-13A, 67392 is a payload satellite owned by HawkEye 360 (US) in SSO that was launched on Sun, 11 Jan 2026 UTC via an FALCON 9 launch vehicle from the Air Force Western Test Range (AFWTR). Payload-class satellites include a variety of spacecraft equipped with specific instruments for various scientific and technological missions. These include communications satellites like Starlink; space stations such as the ISS; scientific satellites like the Hubble; Earth observation satellites from companies like Planet Labs, Umbra, and HawkEye 360; GPS; miniature CubeSats for education and research; and military/defense satellites.

Loading next visibility...
Identifier
67392, 2026-004AF
Orbit
SSO
Country
Flag of USUS
Related business
Manufacturer
UTIAS-SFL
Mission
Operational spacecraft
Bus & Motor
HAWK2G, Unknown motor
Mass
31 kg wet, 30 kg dry
Launch date (UTC)
2026-01-11 (3 months ago)
Launch vehicle
FALCON 9
Launch site
Air Force Western Test Range (AFWTR)
Object type
Payload
Rocket body
Debris
Shape & HBR
Unknown shape, 1.0 m
Radar Cross Section
RCS unknown

Expand to show TLE details & history
Last TLE update: 7 hours ago

TLE from 7 hours ago
0 HAWK-13A
1 67392U 26004AF  26095.26304924  .00006580  00000-0  32183-3 0  9990
2 67392  97.4447  95.2196 0004476 209.6854 150.4126 15.18535952 12692
Epoch: 2026-04-05T06:18Z
TLE epoch observation values (Epoch: 2026-04-05T06:18:47.454Z)
Latitude
-0.0001°
Longitude
166.9509°
Altitude
516.034 km
Speed
7.604 km/s
True Right ascension
06h 20m 52s
True Declination
0° 00' 00"
Sunlit
Object was in daylight at epoch
Visualization orbit readout
Latitude
Unknown
Longitude
Unknown
Altitude
Unknown
Speed
Unknown
Apparent Right ascension
Unknown
Apparent Declination
Unknown
Sunlit
N/A
Visualization observer readout
Local Sidereal Time
19:28:57
Azimuth
Unknown
Elevation
Unknown
Doppler factor
Unknown
Orbital elements
Apogee altitude
510.316 km
Perigee altitude
504.152 km
Semi-major axis
6,885.371 km
Eccentricity
0.00045
Inclination
97.4447°
RAAN
95.2196°
Arg. of periapsis
209.6854°
True anomaly
150.43791°
Mean anomaly
150.4126°
Eccentric anomaly
150.42526°
Mean motion
3.79885 °/min
Orbital period
94.77 mins
BSTAR
0.00032183
Loading maneuver chart data...
Computing Atmospheric mass density...
Loading historical data...
Loading historical data...
Loading historical data...
Loading historical data...
Loading historical data...
Loading historical data...
Loading historical data...

Documentation

Showing up to 5 results
|